Racine, WI

5:10 AM CDT on August 18, 2017 (GMT -0500)
Batten

Weather History for KRAC - September, 2012

Change the Weather History Date:

Tuesday, September 4, 2012

  Actual Average Record
Temperature  
Mean Temperature 72 °F -  
Max Temperature 81 °F 75 °F 89 °F (1985)
Min Temperature 64 °F 59 °F 44 °F (1972)
Cooling Degree Days 7    
Growing Degree Days 22 (Base 50)    
Moisture  
Dew Point 68 °F    
Average Humidity 88    
Maximum Humidity 100    
Minimum Humidity 69    
Precipitation  
Precipitation 1.60 in - - ()
Sea Level Pressure  
Sea Level Pressure 29.90 in    
Wind  
Wind Speed 7 mph (SW)    
Max Wind Speed 20 mph    
Max Gust Speed 32 mph    
Visibility 6 miles    
Events Rain , Thunderstorm    
Averages and records for this station are not official NWS values.
T = Trace of Precipitation, MM = Missing Value Source: NWS Daily Summary

Daily Weather History Graph

Daily Weather History Graph

Search for Another Location

Airport or City:

Trip Planner

Search our weather history database for the weather conditions in past years. The results will help you decide how hot, cold, wet, or windy it might be!

Date:

Astronomy

Sep. 04, 2012 Rise Set
Actual Time 6:19 AM CDT 7:19 PM CDT
Civil Twilight 5:50 AM CDT 7:48 PM CDT
Nautical Twilight 5:16 AM CDT 8:22 PM CDT
Astronomical Twilight 4:40 AM CDT 8:58 PM CDT
Moon 9:04 PM CDT (9/4) 10:33 AM CDT (9/4)
Length of Visible Light 13h 57m
Length of Day
12h 59m
Waning Gibbous, 83% of the Moon is Illuminated
Sep 4
Waning Gibbous
Sep 8
Last Quarter
Sep 15
New
Sep 22
First Quarter
Sep 29
Full

Hourly Weather History & Observations

Time (CDT) Temp. Heat Index Dew Point Humidity Pressure Visibility Wind Dir Wind Speed Gust Speed Precip Events Conditions
12:06 AM 71.6 °F - 69.8 °F 94% 29.92 in 2.0 mi West 5.8 mph - 0.09 in Rain Rain
12:11 AM 71.6 °F - 69.8 °F 94% 29.91 in 0.8 mi SW 11.5 mph - 0.30 in Rain Heavy Rain
12:18 AM 71.6 °F - 66.2 °F 83% 29.92 in 1.0 mi SSW 10.4 mph - 0.37 in Rain , Thunderstorm Heavy Rain
12:26 AM 71.6 °F - 66.2 °F 83% 29.92 in 3.0 mi North 6.9 mph - 0.39 in Rain , Thunderstorm Light Rain
12:33 AM 71.6 °F - 66.2 °F 83% 29.91 in 10.0 mi NNE 4.6 mph - 0.39 in Rain , Thunderstorm Light Rain
12:53 AM 72.0 °F - 70.0 °F 93% 29.90 in 9.0 mi ESE 8.1 mph - 0.39 in Rain Light Rain
1:53 AM 72.0 °F - 70.0 °F 93% 29.89 in 7.0 mi NE 13.8 mph - 0.00 in   Overcast
2:10 AM 71.6 °F - 69.8 °F 94% 29.94 in 8.0 mi NNE 11.5 mph - N/A Thunderstorm Thunderstorm
2:32 AM 69.8 °F - 68.0 °F 94% 29.93 in 3.0 mi NNE 4.6 mph - 0.05 in Rain , Thunderstorm Heavy Thunderstorms and Rain
2:38 AM 69.8 °F - 69.8 °F 100% 29.94 in 1.8 mi North 3.5 mph - 0.13 in Rain , Thunderstorm Heavy Thunderstorms and Rain
2:53 AM 69.1 °F - 68.0 °F 96% 29.93 in 1.0 mi SW 4.6 mph - 0.32 in Rain , Thunderstorm Heavy Thunderstorms and Rain
3:13 AM 69.8 °F - 68.0 °F 94% 29.93 in 1.2 mi SSW 5.8 mph - 0.26 in Rain Heavy Rain
3:30 AM 69.8 °F - 68.0 °F 94% 29.91 in 3.0 mi SSE 8.1 mph - 0.36 in Rain Rain
3:53 AM 69.1 °F - 68.0 °F 96% 29.90 in 9.0 mi Calm Calm - 0.36 in   Mostly Cloudy
4:36 AM 69.8 °F - 68.0 °F 94% 29.91 in 5.0 mi Calm Calm - N/A   Scattered Clouds
4:53 AM 69.1 °F - 68.0 °F 96% 29.90 in 4.0 mi Calm Calm - N/A   Partly Cloudy
5:36 AM 68.0 °F - 68.0 °F 100% 29.90 in 1.8 mi Calm Calm - N/A   Clear
5:47 AM 68.0 °F - 68.0 °F 100% 29.91 in 3.0 mi Calm Calm - N/A   Clear
5:53 AM 68.0 °F - 68.0 °F 100% 29.89 in 4.0 mi WSW 3.5 mph - N/A   Clear
6:22 AM 66.2 °F - 66.2 °F 100% 29.91 in 1.8 mi Calm Calm - N/A   Clear
6:35 AM 68.0 °F - 66.2 °F 94% 29.91 in 3.0 mi West 3.5 mph - N/A   Clear
6:53 AM 68.0 °F - 68.0 °F 100% 29.90 in 3.0 mi West 4.6 mph - N/A   Clear
7:53 AM 70.0 °F - 69.1 °F 97% 29.91 in 6.0 mi West 3.5 mph - N/A   Clear
8:53 AM 73.0 °F - 70.0 °F 90% 29.91 in 10.0 mi WSW 3.5 mph - N/A   Clear
9:53 AM 77.0 °F - 70.0 °F 79% 29.90 in 10.0 mi Calm Calm - N/A   Clear
10:53 AM 80.1 °F 83.2 °F 70.0 °F 71% 29.91 in 10.0 mi Variable 5.8 mph - N/A   Clear
11:53 AM 79.0 °F - 71.1 °F 77% 29.90 in 10.0 mi ESE 5.8 mph - N/A   Clear
12:53 PM 78.1 °F - 71.1 °F 79% 29.88 in 10.0 mi ESE 5.8 mph - N/A   Clear
1:53 PM 79.0 °F - 70.0 °F 74% 29.88 in 10.0 mi ESE 8.1 mph - N/A   Clear
2:53 PM 79.0 °F - 71.1 °F 77% 29.86 in 10.0 mi ESE 11.5 mph - N/A   Clear
3:53 PM 79.0 °F - 71.1 °F 77% 29.86 in 10.0 mi SE 10.4 mph - N/A   Clear
4:53 PM 77.0 °F - 70.0 °F 79% 29.86 in 10.0 mi SE 11.5 mph - N/A   Clear
5:53 PM 75.9 °F - 70.0 °F 82% 29.86 in 10.0 mi SSE 10.4 mph - N/A   Clear
6:53 PM 75.0 °F - 70.0 °F 84% 29.84 in 10.0 mi South 9.2 mph - N/A   Clear
7:53 PM 73.9 °F - 70.0 °F 87% 29.86 in 10.0 mi South 4.6 mph - N/A   Clear
8:53 PM 73.9 °F - 68.0 °F 82% 29.84 in 10.0 mi South 6.9 mph - N/A   Clear
9:53 PM 75.0 °F - 68.0 °F 79% 29.85 in 10.0 mi South 3.5 mph - N/A   Clear
10:14 PM 71.6 °F - 60.8 °F 69% 29.94 in 10.0 mi WNW 19.6 mph 31.1 mph N/A Thunderstorm Thunderstorm
10:21 PM 69.8 °F - 60.8 °F 73% 29.94 in 9.0 mi WNW 19.6 mph 31.1 mph 0.01 in Rain , Thunderstorm Light Thunderstorms and Rain
10:33 PM 64.4 °F - 62.6 °F 94% 29.94 in 1.8 mi NW 12.7 mph 27.6 mph 0.18 in Rain , Thunderstorm Heavy Thunderstorms and Rain
10:48 PM 66.2 °F - 62.6 °F 88% 29.94 in 3.0 mi NW 18.4 mph 32.2 mph 0.31 in Rain , Thunderstorm Thunderstorms and Rain
10:49 PM 66.0 °F - 62.1 °F 87% 29.94 in 3.0 mi NW 18.4 mph 32.2 mph 0.32 in Rain , Thunderstorm Thunderstorms and Rain
11:53 PM 64.9 °F - 62.1 °F 90% 29.96 in 5.0 mi NW 8.1 mph - 0.21 in Rain , Thunderstorm Rain